Weather History for KFKN - March, 2013

Change the Weather History Date:

Wednesday, March 13, 2013

  Actual Average (KSFQ) Record (KSFQ)
Temperature  
Mean Temperature 46 °F -  
Max Temperature 57 °F 62 °F 88 °F (1990)
Min Temperature 35 °F 40 °F 23 °F (1960)
Degree Days  
Heating Degree Days 19    
Moisture  
Dew Point 31 °F    
Average Humidity 54    
Maximum Humidity 93    
Minimum Humidity 29    
Precipitation  
Precipitation 0.00 in - - ()
Sea Level Pressure  
Sea Level Pressure 29.99 in    
Wind  
Wind Speed 7 mph (WNW)    
Max Wind Speed 20 mph    
Max Gust Speed 25 mph    
Visibility 10 miles    
Events      
Averages and records for this station are not official NWS values.
T = Trace of Precipitation, MM = Missing Value Source: NWS Daily Summary

Daily Weather History Graph

Daily Weather History Graph

Search for Another Location

Airport or City:

Trip Planner

Search our weather history database for the weather conditions in past years. The results will help you decide how hot, cold, wet, or windy it might be!

Date:

Astronomy

Mar. 13, 2013 Rise Set
Actual Time 7:21 AM EDT 7:13 PM EDT
Civil Twilight 6:55 AM EDT 7:39 PM EDT
Nautical Twilight 6:25 AM EDT 8:09 PM EDT
Astronomical Twilight 5:55 AM EDT 8:39 PM EDT
Moon 8:03 AM EDT (3/13) 9:22 PM EDT (3/13)
Length of Visible Light 12h 43m
Length of Day
11h 52m
Waxing Crescent, 4% of the Moon is Illuminated
Mar 13
Waxing Crescent
Mar 19
First Quarter
Mar 27
Full
Apr 3
Last Quarter
Apr 10
New

Hourly Weather History & Observations

Time (EDT) Temp. Windchill Dew Point Humidity Pressure Visibility Wind Dir Wind Speed Gust Speed Precip Events Conditions
12:15 AM 53.6 °F - 41.0 °F 62% 29.92 in 10.0 mi NNE 10.4 mph 16.1 mph N/A   Overcast
12:35 AM 51.8 °F - 39.2 °F 62% 29.93 in 10.0 mi North 6.9 mph - N/A   Overcast
12:55 AM 51.8 °F - 37.4 °F 58% 29.93 in 10.0 mi North 9.2 mph - N/A   Scattered Clouds
1:55 AM 48.2 °F - 37.4 °F 66% 29.95 in 10.0 mi NNE 4.6 mph - N/A   Mostly Cloudy
2:15 AM 48.2 °F - 37.4 °F 66% 29.95 in 10.0 mi North 5.8 mph - N/A   Mostly Cloudy
2:35 AM 48.2 °F - 35.6 °F 62% 29.96 in 10.0 mi North 9.2 mph - N/A   Mostly Cloudy
2:55 AM 46.4 °F 42.4 °F 35.6 °F 66% 29.97 in 10.0 mi North 8.1 mph - N/A   Overcast
3:15 AM 46.4 °F 43.5 °F 35.6 °F 66% 29.97 in 10.0 mi North 5.8 mph - N/A   Overcast
3:35 AM 46.4 °F 42.4 °F 33.8 °F 62% 29.97 in 10.0 mi North 8.1 mph - N/A   Mostly Cloudy
3:55 AM 44.6 °F 40.2 °F 33.8 °F 66% 29.98 in 10.0 mi North 8.1 mph - N/A   Mostly Cloudy
4:15 AM 44.6 °F 41.4 °F 33.8 °F 66% 29.98 in 10.0 mi North 5.8 mph - N/A   Overcast
4:55 AM 42.8 °F 40.1 °F 33.8 °F 70% 30.00 in 10.0 mi North 4.6 mph - N/A   Mostly Cloudy
5:15 AM 42.8 °F 40.1 °F 33.8 °F 70% 30.01 in 10.0 mi North 4.6 mph - N/A   Scattered Clouds
5:35 AM 42.8 °F - 33.8 °F 70% 30.01 in 10.0 mi Calm Calm - N/A   Clear
5:55 AM 41.0 °F - 33.8 °F 76% 30.01 in 10.0 mi Calm Calm - N/A   Clear
6:15 AM 39.2 °F - 33.8 °F 81% 30.02 in 10.0 mi Calm Calm - N/A   Clear
6:35 AM 37.4 °F - 33.8 °F 87% 30.02 in 10.0 mi Calm Calm - N/A   Clear
6:55 AM 37.4 °F - 33.8 °F 87% 30.01 in 10.0 mi Calm Calm - N/A   Clear
7:15 AM 35.6 °F - 33.8 °F 93% 30.02 in 10.0 mi Calm Calm - N/A   Clear
7:35 AM 35.6 °F - 33.8 °F 93% 30.02 in 10.0 mi Calm Calm - N/A   Clear
7:55 AM 37.4 °F - 35.6 °F 93% 30.02 in 10.0 mi Calm Calm - N/A   Clear
8:15 AM 39.2 °F - 35.6 °F 87% 30.03 in 10.0 mi Calm Calm - N/A   Clear
8:35 AM 41.0 °F - 37.4 °F 87% 30.03 in 10.0 mi Calm Calm - N/A   Clear
8:55 AM 44.6 °F - 35.6 °F 71% 30.04 in 10.0 mi Calm Calm - N/A   Clear
9:15 AM 44.6 °F - 33.8 °F 66% 30.03 in 10.0 mi Calm Calm - N/A   Clear
9:35 AM 46.4 °F - 30.2 °F 53% 30.03 in 10.0 mi Calm Calm - N/A   Clear
9:55 AM 48.2 °F - 32.0 °F 54% 30.03 in 10.0 mi Calm Calm - N/A   Clear
10:15 AM 48.2 °F - 30.2 °F 50% 30.03 in 10.0 mi Calm Calm - N/A   Clear
10:35 AM 50.0 °F - 32.0 °F 50% 30.03 in 10.0 mi SW 3.5 mph - N/A   Clear
10:55 AM 51.8 °F - 30.2 °F 44% 30.02 in 10.0 mi WSW 5.8 mph - N/A   Clear
11:15 AM 51.8 °F - 32.0 °F 47% 30.02 in 10.0 mi WNW 5.8 mph - N/A   Clear
11:35 AM 53.6 °F - 32.0 °F 44% 30.02 in 10.0 mi West 3.5 mph - N/A   Clear
11:55 AM 53.6 °F - 32.0 °F 44% 30.01 in 10.0 mi WNW 9.2 mph - N/A   Scattered Clouds
12:15 PM 53.6 °F - 30.2 °F 41% 30.00 in 10.0 mi West 10.4 mph 17.3 mph N/A   Clear
12:35 PM 53.6 °F - 28.4 °F 38% 29.99 in 10.0 mi WSW 8.1 mph 16.1 mph N/A   Clear
12:55 PM 53.6 °F - 28.4 °F 38% 29.99 in 10.0 mi WNW 5.8 mph 19.6 mph N/A   Scattered Clouds
1:15 PM 55.4 °F - 28.4 °F 36% 29.98 in 10.0 mi WNW 11.5 mph 17.3 mph N/A   Clear
1:35 PM 55.4 °F - 26.6 °F 33% 29.97 in 10.0 mi WSW 11.5 mph 18.4 mph N/A   Scattered Clouds
1:55 PM 55.4 °F - 26.6 °F 33% 29.96 in 10.0 mi WNW 13.8 mph 21.9 mph N/A   Mostly Cloudy
2:15 PM 55.4 °F - 26.6 °F 33% 29.95 in 10.0 mi WNW 13.8 mph - N/A   Mostly Cloudy
2:35 PM 55.4 °F - 26.6 °F 33% 29.94 in 10.0 mi West 11.5 mph 18.4 mph N/A   Mostly Cloudy
3:15 PM 55.4 °F - 24.8 °F 31% 29.93 in 10.0 mi West 16.1 mph 24.2 mph N/A   Mostly Cloudy
3:35 PM 57.2 °F - 26.6 °F 31% 29.93 in 10.0 mi West 19.6 mph 23.0 mph N/A   Scattered Clouds
3:55 PM 55.4 °F - 24.8 °F 31% 29.93 in 10.0 mi West 18.4 mph 24.2 mph N/A   Scattered Clouds
4:15 PM 57.2 °F - 24.8 °F 29% 29.92 in 10.0 mi West 15.0 mph 18.4 mph N/A   Scattered Clouds
4:35 PM 55.4 °F - 24.8 °F 31% 29.93 in 10.0 mi West 12.7 mph 21.9 mph N/A   Mostly Cloudy
4:55 PM 55.4 °F - 24.8 °F 31% 29.93 in 10.0 mi WNW 11.5 mph 19.6 mph N/A   Mostly Cloudy
5:15 PM 55.4 °F - 24.8 °F 31% 29.93 in 10.0 mi West 9.2 mph - N/A   Mostly Cloudy
5:35 PM 53.6 °F - 24.8 °F 33% 29.93 in 10.0 mi West 12.7 mph 19.6 mph N/A   Scattered Clouds
5:55 PM 55.4 °F - 24.8 °F 31% 29.94 in 10.0 mi WNW 18.4 mph 25.3 mph N/A   Mostly Cloudy
6:15 PM 55.4 °F - 26.6 °F 33% 29.94 in 10.0 mi West 11.5 mph 18.4 mph N/A   Mostly Cloudy
6:35 PM 53.6 °F - 24.8 °F 33% 29.95 in 10.0 mi WNW 17.3 mph 24.2 mph N/A   Scattered Clouds
6:55 PM 51.8 °F - 26.6 °F 38% 29.97 in 10.0 mi WNW 12.7 mph 18.4 mph N/A   Scattered Clouds
7:15 PM 50.0 °F - 28.4 °F 43% 29.98 in 10.0 mi NW 5.8 mph - N/A   Scattered Clouds
7:35 PM 48.2 °F - 30.2 °F 50% 29.99 in 10.0 mi WNW 10.4 mph - N/A   Scattered Clouds
7:55 PM 48.2 °F - 30.2 °F 50% 29.99 in 10.0 mi WNW 6.9 mph - N/A   Scattered Clouds
8:15 PM 46.4 °F 44.3 °F 30.2 °F 53% 30.00 in 10.0 mi WNW 4.6 mph - N/A   Clear
8:35 PM 46.4 °F 44.3 °F 30.2 °F 53% 30.01 in 10.0 mi WNW 4.6 mph - N/A   Clear
8:55 PM 46.4 °F 45.2 °F 30.2 °F 53% 30.02 in 10.0 mi WNW 3.5 mph - N/A   Clear
9:15 PM 44.6 °F 39.7 °F 30.2 °F 57% 30.03 in 10.0 mi WNW 9.2 mph - N/A   Clear
9:35 PM 44.6 °F 39.7 °F 28.4 °F 53% 30.04 in 10.0 mi WNW 9.2 mph - N/A   Clear
9:55 PM 42.8 °F 38.0 °F 28.4 °F 57% 30.04 in 10.0 mi WNW 8.1 mph - N/A   Clear
10:15 PM 42.8 °F 37.0 °F 26.6 °F 53% 30.04 in 10.0 mi West 10.4 mph - N/A   Clear
10:35 PM 42.8 °F 37.5 °F 26.6 °F 53% 30.05 in 10.0 mi WNW 9.2 mph - N/A   Clear
10:55 PM 42.8 °F 36.6 °F 24.8 °F 49% 30.06 in 10.0 mi WNW 11.5 mph 16.1 mph N/A   Clear
11:15 PM 42.8 °F 36.2 °F 24.8 °F 49% 30.06 in 10.0 mi WNW 12.7 mph 17.3 mph N/A   Clear
11:35 PM 42.8 °F 37.5 °F 24.8 °F 49% 30.07 in 10.0 mi WNW 9.2 mph - N/A   Clear
11:55 PM 41.0 °F 34.7 °F 24.8 °F 53% 30.07 in 10.0 mi WNW 10.4 mph - N/A   Clear